Year,Month,Day,Hour,Minute,Value (Times are PST for temperature in C)
2019,03,31,00,00,9.90
2019,03,31,00,01,9.90
2019,03,31,00,02,9.90
2019,03,31,00,03,9.80
2019,03,31,00,04,9.80
2019,03,31,00,05,9.80
2019,03,31,00,06,9.80
2019,03,31,00,07,9.80
2019,03,31,00,08,9.80
2019,03,31,00,09,9.80
2019,03,31,00,10,9.80
2019,03,31,00,11,9.80
2019,03,31,00,12,9.80
2019,03,31,00,13,9.80
2019,03,31,00,14,9.80
2019,03,31,00,15,9.80
2019,03,31,00,16,9.90
2019,03,31,00,17,9.90
2019,03,31,00,18,9.90
2019,03,31,00,19,9.90
2019,03,31,00,20,9.90
2019,03,31,00,21,9.90
2019,03,31,00,22,10.00
2019,03,31,00,23,10.00
2019,03,31,00,24,10.00
2019,03,31,00,25,10.00
2019,03,31,00,26,10.10
2019,03,31,00,27,10.10
2019,03,31,00,28,10.10
2019,03,31,00,29,10.10
2019,03,31,00,30,10.10
2019,03,31,00,31,10.10
2019,03,31,00,32,10.10
2019,03,31,00,33,10.10
2019,03,31,00,34,10.00
2019,03,31,00,35,10.00
2019,03,31,00,36,10.00
2019,03,31,00,37,10.00
2019,03,31,00,38,10.00
2019,03,31,00,39,10.00
2019,03,31,00,40,10.00
2019,03,31,00,41,10.00
2019,03,31,00,42,10.00
2019,03,31,00,43,9.90
2019,03,31,00,44,9.90
2019,03,31,00,45,10.00
2019,03,31,00,46,10.00
2019,03,31,00,47,10.00
2019,03,31,00,48,10.00
2019,03,31,00,49,10.00
2019,03,31,00,50,10.10
2019,03,31,00,51,10.10
2019,03,31,00,52,10.10
2019,03,31,00,53,10.10
2019,03,31,00,54,10.10
2019,03,31,00,55,10.10
2019,03,31,00,56,10.20
2019,03,31,00,57,10.20
2019,03,31,00,58,10.20
2019,03,31,00,59,10.20
2019,03,31,01,00,10.20
2019,03,31,01,01,10.30
2019,03,31,01,02,10.30
2019,03,31,01,03,10.30
2019,03,31,01,04,10.30
2019,03,31,01,05,10.30
2019,03,31,01,06,10.30
2019,03,31,01,07,10.40
2019,03,31,01,08,10.40
2019,03,31,01,09,10.40
2019,03,31,01,10,10.40
2019,03,31,01,11,10.40
2019,03,31,01,12,10.40
2019,03,31,01,13,10.40
2019,03,31,01,14,10.40
2019,03,31,01,15,10.40
2019,03,31,01,16,10.40
2019,03,31,01,17,10.40
2019,03,31,01,18,10.40
2019,03,31,01,19,10.50
2019,03,31,01,20,10.50
2019,03,31,01,21,10.50
2019,03,31,01,22,10.50
2019,03,31,01,23,10.60
2019,03,31,01,24,10.60
2019,03,31,01,25,10.60
2019,03,31,01,26,10.60
2019,03,31,01,27,10.50
2019,03,31,01,28,10.50
2019,03,31,01,29,10.50
2019,03,31,01,30,10.50
2019,03,31,01,31,10.50
2019,03,31,01,32,10.40
2019,03,31,01,33,10.40
2019,03,31,01,34,10.40
2019,03,31,01,35,10.40
2019,03,31,01,36,10.40
2019,03,31,01,37,10.30
2019,03,31,01,38,10.30
2019,03,31,01,39,10.30
2019,03,31,01,40,10.20
2019,03,31,01,41,10.20
2019,03,31,01,42,10.20
2019,03,31,01,43,10.10
2019,03,31,01,44,10.10
2019,03,31,01,45,10.00
2019,03,31,01,46,10.00
2019,03,31,01,47,9.90
2019,03,31,01,48,9.90
2019,03,31,01,49,9.80
2019,03,31,01,50,9.80
2019,03,31,01,51,9.80
2019,03,31,01,52,9.80
2019,03,31,01,53,9.70
2019,03,31,01,54,9.70
2019,03,31,01,55,9.70
2019,03,31,01,56,9.70
2019,03,31,01,57,9.70
2019,03,31,01,58,9.60
2019,03,31,01,59,9.60
2019,03,31,02,00,9.60
2019,03,31,02,01,9.50
2019,03,31,02,02,9.50
2019,03,31,02,03,9.50
2019,03,31,02,04,9.50
2019,03,31,02,05,9.40
2019,03,31,02,06,9.40
2019,03,31,02,07,9.40
2019,03,31,02,08,9.40
2019,03,31,02,09,9.40
2019,03,31,02,10,9.30
2019,03,31,02,11,9.30
2019,03,31,02,12,9.30
2019,03,31,02,13,9.30
2019,03,31,02,14,9.30
2019,03,31,02,15,9.20
2019,03,31,02,16,9.20
2019,03,31,02,17,9.20
2019,03,31,02,18,9.10
2019,03,31,02,19,9.10
2019,03,31,02,20,9.10
2019,03,31,02,21,9.10
2019,03,31,02,22,9.00
2019,03,31,02,23,9.00
2019,03,31,02,24,9.00
2019,03,31,02,25,9.00
2019,03,31,02,26,8.90
2019,03,31,02,27,8.90
2019,03,31,02,28,8.90
2019,03,31,02,29,8.90
2019,03,31,02,30,8.90
2019,03,31,02,31,8.90
2019,03,31,02,32,8.90
2019,03,31,02,33,8.90
2019,03,31,02,34,8.90
2019,03,31,02,35,8.90
2019,03,31,02,36,8.90
2019,03,31,02,37,8.80
2019,03,31,02,38,8.80
2019,03,31,02,39,8.80
2019,03,31,02,40,8.80
2019,03,31,02,41,8.80
2019,03,31,02,42,8.80
2019,03,31,02,43,8.80
2019,03,31,02,44,8.80
2019,03,31,02,45,8.80
2019,03,31,02,46,8.80
2019,03,31,02,47,8.80
2019,03,31,02,48,8.70
2019,03,31,02,49,8.70
2019,03,31,02,50,8.70
2019,03,31,02,51,8.70
2019,03,31,02,52,8.70
2019,03,31,02,53,8.70
2019,03,31,02,54,8.70
2019,03,31,02,55,8.70
2019,03,31,02,56,8.70
2019,03,31,02,57,8.70
2019,03,31,02,58,8.70
2019,03,31,02,59,8.70
2019,03,31,03,00,8.70
2019,03,31,03,01,8.60
2019,03,31,03,02,8.60
2019,03,31,03,03,8.60
2019,03,31,03,04,8.60
2019,03,31,03,05,8.60
2019,03,31,03,06,8.60
2019,03,31,03,07,8.60
2019,03,31,03,08,8.50
2019,03,31,03,09,8.50
2019,03,31,03,10,8.50
2019,03,31,03,11,8.50
2019,03,31,03,12,8.50
2019,03,31,03,13,8.50
2019,03,31,03,14,8.40
2019,03,31,03,15,8.40
2019,03,31,03,16,8.40
2019,03,31,03,17,8.40
2019,03,31,03,18,8.40
2019,03,31,03,19,8.40
2019,03,31,03,20,8.30
2019,03,31,03,21,8.30
2019,03,31,03,22,8.30
2019,03,31,03,23,8.30
2019,03,31,03,24,8.30
2019,03,31,03,25,8.30
2019,03,31,03,26,8.30
2019,03,31,03,27,8.20
2019,03,31,03,28,8.20
2019,03,31,03,29,8.20
2019,03,31,03,30,8.20
2019,03,31,03,31,8.20
2019,03,31,03,32,8.20
2019,03,31,03,33,8.20
2019,03,31,03,34,8.10
2019,03,31,03,35,8.10
2019,03,31,03,36,8.10
2019,03,31,03,37,8.10
2019,03,31,03,38,8.10
2019,03,31,03,39,8.10
2019,03,31,03,40,8.10
2019,03,31,03,41,8.10
2019,03,31,03,42,8.00
2019,03,31,03,43,8.00
2019,03,31,03,44,8.00
2019,03,31,03,45,8.00
2019,03,31,03,46,8.00
2019,03,31,03,47,8.00
2019,03,31,03,48,8.00
2019,03,31,03,49,8.00
2019,03,31,03,50,7.90
2019,03,31,03,51,7.90
2019,03,31,03,52,7.90
2019,03,31,03,53,7.90
2019,03,31,03,54,7.90
2019,03,31,03,55,7.90
2019,03,31,03,56,7.80
2019,03,31,03,57,7.80
2019,03,31,03,58,7.80
2019,03,31,03,59,7.80
2019,03,31,04,00,7.80
2019,03,31,04,01,7.70
2019,03,31,04,02,7.70
2019,03,31,04,03,7.70
2019,03,31,04,04,7.70
2019,03,31,04,05,7.70
2019,03,31,04,06,7.70
2019,03,31,04,07,7.70
2019,03,31,04,08,7.70
2019,03,31,04,09,7.60
2019,03,31,04,10,7.60
2019,03,31,04,11,7.60
2019,03,31,04,12,7.60
2019,03,31,04,13,7.60
2019,03,31,04,14,7.60
2019,03,31,04,15,7.60
2019,03,31,04,16,7.60
2019,03,31,04,17,7.50
2019,03,31,04,18,7.50
2019,03,31,04,19,7.50
2019,03,31,04,20,7.50
2019,03,31,04,21,7.50
2019,03,31,04,22,7.40
2019,03,31,04,23,7.40
2019,03,31,04,24,7.40
2019,03,31,04,25,7.40
2019,03,31,04,26,7.40
2019,03,31,04,27,7.40
2019,03,31,04,28,7.40
2019,03,31,04,29,7.40
2019,03,31,04,30,7.40
2019,03,31,04,31,7.40
2019,03,31,04,32,7.40
2019,03,31,04,33,7.40
2019,03,31,04,34,7.40
2019,03,31,04,35,7.40
2019,03,31,04,36,7.40
2019,03,31,04,37,7.40
2019,03,31,04,38,7.40
2019,03,31,04,39,7.40
2019,03,31,04,40,7.40
2019,03,31,04,41,7.40
2019,03,31,04,42,7.50
2019,03,31,04,43,7.50
2019,03,31,04,44,7.50
2019,03,31,04,45,7.50
2019,03,31,04,46,7.50
2019,03,31,04,47,7.40
2019,03,31,04,48,7.40
2019,03,31,04,49,7.40
2019,03,31,04,50,7.40
2019,03,31,04,51,7.40
2019,03,31,04,52,7.40
2019,03,31,04,53,7.40
2019,03,31,04,54,7.40
2019,03,31,04,55,7.30
2019,03,31,04,56,7.30
2019,03,31,04,57,7.30
2019,03,31,04,58,7.30
2019,03,31,04,59,7.30
2019,03,31,05,00,7.30
2019,03,31,05,01,7.30
2019,03,31,05,02,7.20
2019,03,31,05,03,7.20
2019,03,31,05,04,7.20
2019,03,31,05,05,7.20
2019,03,31,05,06,7.20
2019,03,31,05,07,7.20
2019,03,31,05,08,7.20
2019,03,31,05,09,7.20
2019,03,31,05,10,7.20
2019,03,31,05,11,7.20
2019,03,31,05,12,7.20
2019,03,31,05,13,7.20
2019,03,31,05,14,7.10
2019,03,31,05,15,7.10
2019,03,31,05,16,7.10
2019,03,31,05,17,7.10
2019,03,31,05,18,7.10
2019,03,31,05,19,7.10
2019,03,31,05,20,7.10
2019,03,31,05,21,7.00
2019,03,31,05,22,7.00
2019,03,31,05,23,7.00
2019,03,31,05,24,7.00
2019,03,31,05,25,7.00
2019,03,31,05,26,7.00
2019,03,31,05,27,6.90
2019,03,31,05,28,6.90
2019,03,31,05,29,6.90
2019,03,31,05,30,6.90
2019,03,31,05,31,6.90
2019,03,31,05,32,6.90
2019,03,31,05,33,6.90
2019,03,31,05,34,6.80
2019,03,31,05,35,6.80
2019,03,31,05,36,6.80
2019,03,31,05,37,6.80
2019,03,31,05,38,6.80
2019,03,31,05,39,6.80
2019,03,31,05,40,6.80
2019,03,31,05,41,6.80
2019,03,31,05,42,6.80
2019,03,31,05,43,6.80
2019,03,31,05,44,6.80
2019,03,31,05,45,6.80
2019,03,31,05,46,6.80
2019,03,31,05,47,6.80
2019,03,31,05,48,6.80
2019,03,31,05,49,6.80
2019,03,31,05,50,6.70
2019,03,31,05,51,6.70
2019,03,31,05,52,6.70
2019,03,31,05,53,6.70
2019,03,31,05,54,6.70
2019,03,31,05,55,6.70
2019,03,31,05,56,6.70
2019,03,31,05,57,6.70
2019,03,31,05,58,6.70
2019,03,31,05,59,6.60
2019,03,31,06,00,6.60
2019,03,31,06,01,6.60
2019,03,31,06,02,6.60
2019,03,31,06,03,6.60
2019,03,31,06,04,6.60
2019,03,31,06,05,6.60
2019,03,31,06,06,6.60
2019,03,31,06,07,6.60
2019,03,31,06,08,6.60
2019,03,31,06,09,6.50
2019,03,31,06,10,6.50
2019,03,31,06,11,6.50
2019,03,31,06,12,6.50
2019,03,31,06,13,6.50
2019,03,31,06,14,6.50
2019,03,31,06,15,6.50
2019,03,31,06,16,6.50
2019,03,31,06,17,6.50
2019,03,31,06,18,6.50
2019,03,31,06,19,6.50
2019,03,31,06,20,6.50
2019,03,31,06,21,6.40
2019,03,31,06,22,6.40
2019,03,31,06,23,6.40
2019,03,31,06,24,6.40
2019,03,31,06,25,6.40
2019,03,31,06,26,6.40
2019,03,31,06,27,6.40
2019,03,31,06,28,6.40
2019,03,31,06,29,6.40
2019,03,31,06,30,6.40
2019,03,31,06,31,6.40
2019,03,31,06,32,6.40
2019,03,31,06,33,6.40
2019,03,31,06,34,6.40
2019,03,31,06,35,6.40
2019,03,31,06,36,6.40
2019,03,31,06,37,6.40
2019,03,31,06,38,6.40
2019,03,31,06,39,6.30
2019,03,31,06,40,6.30
2019,03,31,06,41,6.30
2019,03,31,06,42,6.30
2019,03,31,06,43,6.30
2019,03,31,06,44,6.30
2019,03,31,06,45,6.30
2019,03,31,06,46,6.30
2019,03,31,06,47,6.30
2019,03,31,06,48,6.30
2019,03,31,06,49,6.30
2019,03,31,06,50,6.30
2019,03,31,06,51,6.30
2019,03,31,06,52,6.20
2019,03,31,06,53,6.20
2019,03,31,06,54,6.20
2019,03,31,06,55,6.20
2019,03,31,06,56,6.20
2019,03,31,06,57,6.20
2019,03,31,06,58,6.20
2019,03,31,06,59,6.20
2019,03,31,07,00,6.20
2019,03,31,07,01,6.10
2019,03,31,07,02,6.10
2019,03,31,07,03,6.10
2019,03,31,07,04,6.10
2019,03,31,07,05,6.10
2019,03,31,07,06,6.10
2019,03,31,07,07,6.10
2019,03,31,07,08,6.10
2019,03,31,07,09,6.10
2019,03,31,07,10,6.10
2019,03,31,07,11,6.00
2019,03,31,07,12,6.00
2019,03,31,07,13,6.00
2019,03,31,07,14,6.00
2019,03,31,07,15,6.00
2019,03,31,07,16,6.00
2019,03,31,07,17,6.00
2019,03,31,07,18,6.00
2019,03,31,07,19,6.00
2019,03,31,07,20,6.00
2019,03,31,07,21,6.00
2019,03,31,07,22,6.00
2019,03,31,07,23,6.00
2019,03,31,07,24,5.90
2019,03,31,07,25,5.90
2019,03,31,07,26,5.90
2019,03,31,07,27,5.90
2019,03,31,07,28,5.90
2019,03,31,07,29,5.90
2019,03,31,07,30,5.90
2019,03,31,07,31,5.90
2019,03,31,07,32,5.90
2019,03,31,07,33,5.90
2019,03,31,07,34,5.90
2019,03,31,07,35,5.90
2019,03,31,07,36,5.90
2019,03,31,07,37,5.90
2019,03,31,07,38,6.00
2019,03,31,07,39,6.00
2019,03,31,07,40,6.00
2019,03,31,07,41,6.00
2019,03,31,07,42,6.00
2019,03,31,07,43,6.00
2019,03,31,07,44,6.10
2019,03,31,07,45,6.10
2019,03,31,07,46,6.10
2019,03,31,07,47,6.10
2019,03,31,07,48,6.20
2019,03,31,07,49,6.20
2019,03,31,07,50,6.20
2019,03,31,07,51,6.20
2019,03,31,07,52,6.20
2019,03,31,07,53,6.20
2019,03,31,07,54,6.20
2019,03,31,07,55,6.20
2019,03,31,07,56,6.20
2019,03,31,07,57,6.30
2019,03,31,07,58,6.30
2019,03,31,07,59,6.30
2019,03,31,08,00,6.30
2019,03,31,08,01,6.30
2019,03,31,08,02,6.30
2019,03,31,08,03,6.30
2019,03,31,08,04,6.30
2019,03,31,08,05,6.30
2019,03,31,08,06,6.30
2019,03,31,08,07,6.30
2019,03,31,08,08,6.30
2019,03,31,08,09,6.40
2019,03,31,08,10,6.40
2019,03,31,08,11,6.40
2019,03,31,08,12,6.40
2019,03,31,08,13,6.40
2019,03,31,08,14,6.40
2019,03,31,08,15,6.40
2019,03,31,08,16,6.50
2019,03,31,08,17,6.50
2019,03,31,08,18,6.50
2019,03,31,08,19,6.60
2019,03,31,08,20,6.60
2019,03,31,08,21,6.60
2019,03,31,08,22,6.60
2019,03,31,08,23,6.60
2019,03,31,08,24,6.70
2019,03,31,08,25,6.70
2019,03,31,08,26,6.70
2019,03,31,08,27,6.70
2019,03,31,08,28,6.70
2019,03,31,08,29,6.80
2019,03,31,08,30,6.80
2019,03,31,08,31,6.80
2019,03,31,08,32,6.80
2019,03,31,08,33,6.80
2019,03,31,08,34,6.80
2019,03,31,08,35,6.90
2019,03,31,08,36,6.90
2019,03,31,08,37,6.90
2019,03,31,08,38,6.90
2019,03,31,08,39,7.00
2019,03,31,08,40,7.00
2019,03,31,08,41,7.00
2019,03,31,08,42,7.10
2019,03,31,08,43,7.10
2019,03,31,08,44,7.10
2019,03,31,08,45,7.20
2019,03,31,08,46,7.20
2019,03,31,08,47,7.20
2019,03,31,08,48,7.20
2019,03,31,08,49,7.20
2019,03,31,08,50,7.30
2019,03,31,08,51,7.30
2019,03,31,08,52,7.30
2019,03,31,08,53,7.40
2019,03,31,08,54,7.40
2019,03,31,08,55,7.40
2019,03,31,08,56,7.50
2019,03,31,08,57,7.50
2019,03,31,08,58,7.60
2019,03,31,08,59,7.60
2019,03,31,09,00,7.60
2019,03,31,09,01,7.60
2019,03,31,09,02,7.70
2019,03,31,09,03,7.70
2019,03,31,09,04,7.80
2019,03,31,09,05,7.80
2019,03,31,09,06,7.80
2019,03,31,09,07,7.90
2019,03,31,09,08,7.90
2019,03,31,09,09,8.00
2019,03,31,09,10,8.00
2019,03,31,09,11,8.00
2019,03,31,09,12,8.10
2019,03,31,09,13,8.10
2019,03,31,09,14,8.20
2019,03,31,09,15,8.20
2019,03,31,09,16,8.30
2019,03,31,09,17,8.30
2019,03,31,09,18,8.30
2019,03,31,09,19,8.30
2019,03,31,09,20,8.40
2019,03,31,09,21,8.40
2019,03,31,09,22,8.50
2019,03,31,09,23,8.50
2019,03,31,09,24,8.60
2019,03,31,09,25,8.60
2019,03,31,09,26,8.70
2019,03,31,09,27,8.70
2019,03,31,09,28,8.80
2019,03,31,09,29,8.80
2019,03,31,09,30,8.90
2019,03,31,09,31,8.90
2019,03,31,09,32,9.00
2019,03,31,09,33,9.00
2019,03,31,09,34,9.10
2019,03,31,09,35,9.20
2019,03,31,09,36,9.20
2019,03,31,09,37,9.30
2019,03,31,09,38,9.30
2019,03,31,09,39,9.40
2019,03,31,09,40,9.40
2019,03,31,09,41,9.50
2019,03,31,09,42,9.50
2019,03,31,09,43,9.60
2019,03,31,09,44,9.60
2019,03,31,09,45,9.70
2019,03,31,09,46,9.80
2019,03,31,09,47,9.80
2019,03,31,09,48,9.80
2019,03,31,09,49,9.90
2019,03,31,09,50,9.90
2019,03,31,09,51,10.00
2019,03,31,09,52,10.00
2019,03,31,09,53,10.10
2019,03,31,09,54,10.10
2019,03,31,09,55,10.20
2019,03,31,09,56,10.20
2019,03,31,09,57,10.20
2019,03,31,09,58,10.30
2019,03,31,09,59,10.30
2019,03,31,10,00,10.30
2019,03,31,10,01,10.40
2019,03,31,10,02,10.40
2019,03,31,10,03,10.40
2019,03,31,10,04,10.50
2019,03,31,10,05,10.50
2019,03,31,10,06,10.50
2019,03,31,10,07,10.60
2019,03,31,10,08,10.60
2019,03,31,10,09,10.60
2019,03,31,10,10,10.70
2019,03,31,10,11,10.70
2019,03,31,10,12,10.70
2019,03,31,10,13,10.70
2019,03,31,10,14,10.80
2019,03,31,10,15,10.80
2019,03,31,10,16,10.90
2019,03,31,10,17,10.90
2019,03,31,10,18,10.90
2019,03,31,10,19,10.90
2019,03,31,10,20,11.00
2019,03,31,10,21,11.00
2019,03,31,10,22,11.10
2019,03,31,10,23,11.10
2019,03,31,10,24,11.10
2019,03,31,10,25,11.10
2019,03,31,10,26,11.10
2019,03,31,10,27,11.10
2019,03,31,10,28,11.10
2019,03,31,10,29,11.10
2019,03,31,10,30,11.10
2019,03,31,10,31,11.10
2019,03,31,10,32,11.10
2019,03,31,10,33,11.20
2019,03,31,10,34,11.20
2019,03,31,10,35,11.30
2019,03,31,10,36,11.30
2019,03,31,10,37,11.30
2019,03,31,10,38,11.40
2019,03,31,10,39,11.40
2019,03,31,10,40,11.40
2019,03,31,10,41,11.50
2019,03,31,10,42,11.50
2019,03,31,10,43,11.50
2019,03,31,10,44,11.60
2019,03,31,10,45,11.70
2019,03,31,10,46,11.70
2019,03,31,10,47,11.70
2019,03,31,10,48,11.70
2019,03,31,10,49,11.70
2019,03,31,10,50,11.80
2019,03,31,10,51,11.80
2019,03,31,10,52,11.80
2019,03,31,10,53,11.80
2019,03,31,10,54,11.80
2019,03,31,10,55,11.80
2019,03,31,10,56,11.80
2019,03,31,10,57,11.80
2019,03,31,10,58,11.80
2019,03,31,10,59,11.90
2019,03,31,11,00,11.90
2019,03,31,11,01,11.90
2019,03,31,11,02,12.00
2019,03,31,11,03,12.00
2019,03,31,11,04,12.10
2019,03,31,11,05,12.20
2019,03,31,11,06,12.30
2019,03,31,11,07,12.30
2019,03,31,11,08,12.40
2019,03,31,11,09,12.50
2019,03,31,11,10,12.60
2019,03,31,11,11,12.70
2019,03,31,11,12,12.70
2019,03,31,11,13,12.80
2019,03,31,11,14,12.90
2019,03,31,11,15,13.00
2019,03,31,11,16,13.00
2019,03,31,11,17,13.10
2019,03,31,11,18,13.10
2019,03,31,11,19,13.20
2019,03,31,11,20,13.20
2019,03,31,11,21,13.20
2019,03,31,11,22,13.20
2019,03,31,11,23,13.20
2019,03,31,11,24,13.20
2019,03,31,11,25,13.20
2019,03,31,11,26,13.20
2019,03,31,11,27,13.30
2019,03,31,11,28,13.30
2019,03,31,11,29,13.30
2019,03,31,11,30,13.30
2019,03,31,11,31,13.30
2019,03,31,11,32,13.30
2019,03,31,11,33,13.20
2019,03,31,11,34,13.20
2019,03,31,11,35,13.20
2019,03,31,11,36,13.20
2019,03,31,11,37,13.20
2019,03,31,11,38,13.20
2019,03,31,11,39,13.10
2019,03,31,11,40,13.10
2019,03,31,11,41,13.10
2019,03,31,11,42,13.10
2019,03,31,11,43,13.20
2019,03,31,11,44,13.20
2019,03,31,11,45,13.20
2019,03,31,11,46,13.20
2019,03,31,11,47,13.30
2019,03,31,11,48,13.30
2019,03,31,11,49,13.40
2019,03,31,11,50,13.40
2019,03,31,11,51,13.40
2019,03,31,11,52,13.40
2019,03,31,11,53,13.50
2019,03,31,11,54,13.50
2019,03,31,11,55,13.50
2019,03,31,11,56,13.50
2019,03,31,11,57,13.50
2019,03,31,11,58,13.60
2019,03,31,11,59,13.60
2019,03,31,12,00,13.70
2019,03,31,12,01,13.70
2019,03,31,12,02,13.70
2019,03,31,12,03,13.70
2019,03,31,12,04,13.80
2019,03,31,12,05,13.80
2019,03,31,12,06,13.80
2019,03,31,12,07,13.80
2019,03,31,12,08,13.80
2019,03,31,12,09,13.80
2019,03,31,12,10,13.80
2019,03,31,12,11,13.80
2019,03,31,12,12,13.70
2019,03,31,12,13,13.70
2019,03,31,12,14,13.70
2019,03,31,12,15,13.60
2019,03,31,12,16,13.60
2019,03,31,12,17,13.60
2019,03,31,12,18,13.60
2019,03,31,12,19,13.70
2019,03,31,12,20,13.70
2019,03,31,12,21,13.70
2019,03,31,12,22,13.80
2019,03,31,12,23,13.90
2019,03,31,12,24,13.90
2019,03,31,12,25,13.90
2019,03,31,12,26,14.00
2019,03,31,12,27,14.00
2019,03,31,12,28,14.00
2019,03,31,12,29,14.00
2019,03,31,12,30,14.00
2019,03,31,12,31,13.90
2019,03,31,12,32,13.90
2019,03,31,12,33,13.90
2019,03,31,12,34,14.00
2019,03,31,12,35,14.00
2019,03,31,12,36,14.00
2019,03,31,12,37,14.10
2019,03,31,12,38,14.10
2019,03,31,12,39,14.10
2019,03,31,12,40,14.20
2019,03,31,12,41,14.30
2019,03,31,12,42,14.30
2019,03,31,12,43,14.30
2019,03,31,12,44,14.30
2019,03,31,12,45,14.30
2019,03,31,12,46,14.30
2019,03,31,12,47,14.30
2019,03,31,12,48,14.30
2019,03,31,12,49,14.30
2019,03,31,12,50,14.30
2019,03,31,12,51,14.40
2019,03,31,12,52,14.40
2019,03,31,12,53,14.40
2019,03,31,12,54,14.40
2019,03,31,12,55,14.50
2019,03,31,12,56,14.60
2019,03,31,12,57,14.60
2019,03,31,12,58,14.70
2019,03,31,12,59,14.70
2019,03,31,13,00,14.70
2019,03,31,13,01,14.70
2019,03,31,13,02,14.70
2019,03,31,13,03,14.60
2019,03,31,13,04,14.60
2019,03,31,13,05,14.60
2019,03,31,13,06,14.50
2019,03,31,13,07,14.50
2019,03,31,13,08,14.50
2019,03,31,13,09,14.60
2019,03,31,13,10,14.60
2019,03,31,13,11,14.70
2019,03,31,13,12,14.70
2019,03,31,13,13,14.80
2019,03,31,13,14,14.80
2019,03,31,13,15,14.80
2019,03,31,13,16,14.80
2019,03,31,13,17,14.70
2019,03,31,13,18,14.70
2019,03,31,13,19,14.70
2019,03,31,13,20,14.70
2019,03,31,13,21,14.80
2019,03,31,13,22,14.80
2019,03,31,13,23,14.90
2019,03,31,13,24,14.90
2019,03,31,13,25,15.00
2019,03,31,13,26,15.10
2019,03,31,13,27,15.20
2019,03,31,13,28,15.20
2019,03,31,13,29,15.30
2019,03,31,13,30,15.30
2019,03,31,13,31,15.30
2019,03,31,13,32,15.30
2019,03,31,13,33,15.30
2019,03,31,13,34,15.30
2019,03,31,13,35,15.30
2019,03,31,13,36,15.30
2019,03,31,13,37,15.30
2019,03,31,13,38,15.30
2019,03,31,13,39,15.30
2019,03,31,13,40,15.30
2019,03,31,13,41,15.30
2019,03,31,13,42,15.30
2019,03,31,13,43,15.40
2019,03,31,13,44,15.40
2019,03,31,13,45,15.50
2019,03,31,13,46,15.50
2019,03,31,13,47,15.50
2019,03,31,13,48,15.50
2019,03,31,13,49,15.50
2019,03,31,13,50,15.50
2019,03,31,13,51,15.50
2019,03,31,13,52,15.60
2019,03,31,13,53,15.60
2019,03,31,13,54,15.70
2019,03,31,13,55,15.70
2019,03,31,13,56,15.70
2019,03,31,13,57,15.70
2019,03,31,13,58,15.70
2019,03,31,13,59,15.70
2019,03,31,14,00,15.70
2019,03,31,14,01,15.80
2019,03,31,14,02,15.80
2019,03,31,14,03,15.70
2019,03,31,14,04,15.70
2019,03,31,14,05,15.70
2019,03,31,14,06,15.70
2019,03,31,14,07,15.70
2019,03,31,14,08,15.70
2019,03,31,14,09,15.60
2019,03,31,14,10,15.60
2019,03,31,14,11,15.70
2019,03,31,14,12,15.70
2019,03,31,14,13,15.70
2019,03,31,14,14,15.70
2019,03,31,14,15,15.70
2019,03,31,14,16,15.70
2019,03,31,14,17,15.70
2019,03,31,14,18,15.80
2019,03,31,14,19,15.80
2019,03,31,14,20,15.80
2019,03,31,14,21,15.90
2019,03,31,14,22,15.90
2019,03,31,14,23,15.90
2019,03,31,14,24,16.00
2019,03,31,14,25,16.10
2019,03,31,14,26,16.10
2019,03,31,14,27,16.10
2019,03,31,14,28,16.10
2019,03,31,14,29,16.10
2019,03,31,14,30,16.10
2019,03,31,14,31,16.10
2019,03,31,14,32,16.10
2019,03,31,14,33,16.10
2019,03,31,14,34,16.10
2019,03,31,14,35,16.10
2019,03,31,14,36,16.10
2019,03,31,14,37,16.10
2019,03,31,14,38,16.10
2019,03,31,14,39,16.20
2019,03,31,14,40,16.20
2019,03,31,14,41,16.30
2019,03,31,14,42,16.30
2019,03,31,14,43,16.40
2019,03,31,14,44,16.40
2019,03,31,14,45,16.40
2019,03,31,14,46,16.40
2019,03,31,14,47,16.40
2019,03,31,14,48,16.50
2019,03,31,14,49,16.50
2019,03,31,14,50,16.40
2019,03,31,14,51,16.40
2019,03,31,14,52,16.40
2019,03,31,14,53,16.50
2019,03,31,14,54,16.50
2019,03,31,14,55,16.50
2019,03,31,14,56,16.60
2019,03,31,14,57,16.60
2019,03,31,14,58,16.60
2019,03,31,14,59,16.70
2019,03,31,15,00,16.70
2019,03,31,15,01,16.70
2019,03,31,15,02,16.70
2019,03,31,15,03,16.70
2019,03,31,15,04,16.70
2019,03,31,15,05,16.70
2019,03,31,15,06,16.70
2019,03,31,15,07,16.70
2019,03,31,15,08,16.70
2019,03,31,15,09,16.70
2019,03,31,15,10,16.70
2019,03,31,15,11,16.70
2019,03,31,15,12,16.60
2019,03,31,15,13,16.60
2019,03,31,15,14,16.60
2019,03,31,15,15,16.60
2019,03,31,15,16,16.60
2019,03,31,15,17,16.60
2019,03,31,15,18,16.60
2019,03,31,15,19,16.60
2019,03,31,15,20,16.60
2019,03,31,15,21,16.50
2019,03,31,15,22,16.50
2019,03,31,15,23,16.50
2019,03,31,15,24,16.50
2019,03,31,15,25,16.50
2019,03,31,15,26,16.50
2019,03,31,15,27,16.50
2019,03,31,15,28,16.60
2019,03,31,15,29,16.60
2019,03,31,15,30,16.70
2019,03,31,15,31,16.80
2019,03,31,15,32,16.80
2019,03,31,15,33,16.80
2019,03,31,15,34,16.80
2019,03,31,15,35,16.80
2019,03,31,15,36,16.80
2019,03,31,15,37,16.80
2019,03,31,15,38,16.80
2019,03,31,15,39,16.90
2019,03,31,15,40,16.90
2019,03,31,15,41,16.90
2019,03,31,15,42,17.00
2019,03,31,15,43,17.00
2019,03,31,15,44,17.00
2019,03,31,15,45,17.00
2019,03,31,15,46,17.10
2019,03,31,15,47,17.10
2019,03,31,15,48,17.10
2019,03,31,15,49,17.10
2019,03,31,15,50,17.10
2019,03,31,15,51,17.10
2019,03,31,15,52,17.10
2019,03,31,15,53,17.10
2019,03,31,15,54,17.10
2019,03,31,15,55,17.10
2019,03,31,15,56,17.10
2019,03,31,15,57,17.10
2019,03,31,15,58,17.10
2019,03,31,15,59,17.00
2019,03,31,16,00,17.00
2019,03,31,16,01,17.10
2019,03,31,16,02,17.10
2019,03,31,16,03,17.20
2019,03,31,16,04,17.30
2019,03,31,16,05,17.40
2019,03,31,16,06,17.50
2019,03,31,16,07,17.50
2019,03,31,16,08,17.60
2019,03,31,16,09,17.60
2019,03,31,16,10,17.60
2019,03,31,16,11,17.50
2019,03,31,16,12,17.50
2019,03,31,16,13,17.50
2019,03,31,16,14,17.50
2019,03,31,16,15,17.50
2019,03,31,16,16,17.50
2019,03,31,16,17,17.50
2019,03,31,16,18,17.50
2019,03,31,16,19,17.50
2019,03,31,16,20,17.50
2019,03,31,16,21,17.60
2019,03,31,16,22,17.60
2019,03,31,16,23,17.60
2019,03,31,16,24,17.60
2019,03,31,16,25,17.70
2019,03,31,16,26,17.70
2019,03,31,16,27,17.70
2019,03,31,16,28,17.80
2019,03,31,16,29,17.80
2019,03,31,16,30,17.90
2019,03,31,16,31,17.90
2019,03,31,16,32,18.00
2019,03,31,16,33,18.00
2019,03,31,16,34,18.10
2019,03,31,16,35,18.10
2019,03,31,16,36,18.20
2019,03,31,16,37,18.20
2019,03,31,16,38,18.20
2019,03,31,16,39,18.20
2019,03,31,16,40,18.20
2019,03,31,16,41,18.10
2019,03,31,16,42,18.00
2019,03,31,16,43,18.00
2019,03,31,16,44,17.90
2019,03,31,16,45,17.90
2019,03,31,16,46,17.80
2019,03,31,16,47,17.80
2019,03,31,16,48,17.70
2019,03,31,16,49,17.60
2019,03,31,16,50,17.50
2019,03,31,16,51,17.40
2019,03,31,16,52,17.40
2019,03,31,16,53,17.30
2019,03,31,16,54,17.30
2019,03,31,16,55,17.30
2019,03,31,16,56,17.30
2019,03,31,16,57,17.40
2019,03,31,16,58,17.40
2019,03,31,16,59,17.50
2019,03,31,17,00,17.50
2019,03,31,17,01,17.50
2019,03,31,17,02,17.60
2019,03,31,17,03,17.60
2019,03,31,17,04,17.60
2019,03,31,17,05,17.60
2019,03,31,17,06,17.70
2019,03,31,17,07,17.70
2019,03,31,17,08,17.70
2019,03,31,17,09,17.70
2019,03,31,17,10,17.70
2019,03,31,17,11,17.70
2019,03,31,17,12,17.70
2019,03,31,17,13,17.60
2019,03,31,17,14,17.60
2019,03,31,17,15,17.60
2019,03,31,17,16,17.60
2019,03,31,17,17,17.60
2019,03,31,17,18,17.60
2019,03,31,17,19,17.70
2019,03,31,17,20,17.70
2019,03,31,17,21,17.70
2019,03,31,17,22,17.70
2019,03,31,17,23,17.80
2019,03,31,17,24,17.90
2019,03,31,17,25,17.90
2019,03,31,17,26,17.90
2019,03,31,17,27,17.90
2019,03,31,17,28,17.90
2019,03,31,17,29,17.90
2019,03,31,17,30,17.90
2019,03,31,17,31,17.90
2019,03,31,17,32,18.00
2019,03,31,17,33,18.00
2019,03,31,17,34,18.10
2019,03,31,17,35,18.10
2019,03,31,17,36,18.10
2019,03,31,17,37,18.20
2019,03,31,17,38,18.20
2019,03,31,17,39,18.20
2019,03,31,17,40,18.20
2019,03,31,17,41,18.20